Starlink 35633

operational
NORAD ID: 66162 Int'l Des: 2025-240 Owner: SPXS Country: US Constellation: starlink
LEOCIRCULAR

关于 Starlink 35633

正在加载描述...

实时位置

正在加载3D地球...

即将过境

高度历史

Altitude vs Time

uPlot chart will show altitude changes over time

两行轨道根数

1 66162U 25240S 25349.32768181 .00019864 00000-0 68068-3 0 9992
2 66162 53.1595 94.5534 0001029 89.5391 270.5728 15.30215952 9078
Epoch: Dec 15, 2025 • Age: 20 hours

当前状态

高度 487.5 km
速度 7.62 km/s
星下点 -36.98°S, 164.77°E
发射日期 Oct 25, 2025
运行时间 0.1 years
类型 internet

技术详情

分类 Payload
质量 575.00 kg
干质量 530.00 kg
总质量 575.00 kg
长度 0.30 m
直径 4.10 m
跨度 29.00 m
形状 Box + pan
制造商 SPXS
平台类型 Starlink V2MO
阶段状态 In Orbit
所有者/国家 SPXS/US

大型星座

Loading constellations...